User: anonymous   Login
Location: Unspecified
(0.0000°N, 0.0000°E)
Time: 20:26:54
(UTC+00:00)
Language:

PAKSAT 1R - Orbit

View from above orbital plane
View from above orbital plane
View from above satellite
View from above satellite

Ground track
Ground track

The orbit data is extracted from the following two-line orbital elements,

1 37779U 11042A   18289.52110760  .00000142  00000-0  00000+0 0  9997
2 37779   0.0287 357.1259 0002796 192.8709  60.5844  1.00274145 26193
Epoch (UTC): 16 October 2018 12:30:23
Eccentricity: 0.0002796
inclination: 0.0287°
perigee height: 35774 km
apogee height: 35797 km
right ascension of ascending node: 357.1259°
argument of perigee: 192.8709°
revolutions per day: 1.00274145
mean anomaly at epoch: 60.5844°
orbit number at epoch: 2619

The dashed part of the orbit path shows where the satellite is in the earth's shadow,  

DLR